Weather reports worldwide

Advertisment
Elphin, United Kingdom (99153): temperature & dewpoint: 14.10.2017 22:00:00 - 20.10.2017 22:00:00 (BST)Elphin, United Kingdom (99153): precipitation: 14.10.2017 22:00:00 - 20.10.2017 22:00:00 (BST)
Date & Time tt [°C] td [°C] rr [mm]
20.10.2017 22:00:00 - - -
20.10.2017 21:00:00 - - 0,0
20.10.2017 20:00:00 10,9 10,1 0,0
20.10.2017 19:00:00 11,2 10,4 0,0
20.10.2017 18:00:00 10,9 10,0 0,0
20.10.2017 17:00:00 11,2 9,8 0,0
20.10.2017 16:00:00 12,4 10,1 0,0
20.10.2017 15:00:00 11,9 10,3 0,0
20.10.2017 14:00:00 11,5 10,4 0,0
20.10.2017 13:00:00 10,7 10,5 0,0
20.10.2017 12:00:00 10,7 10,6 0,2
20.10.2017 11:00:00 10,6 10,5 0,6
20.10.2017 10:00:00 10,7 10,6 0,4
20.10.2017 09:00:00 10,7 10,6 0,4
20.10.2017 08:00:00 10,6 10,5 0,0
20.10.2017 07:00:00 10,5 10,4 0,4
20.10.2017 06:00:00 10,0 9,9 0,6
20.10.2017 05:00:00 9,7 9,6 0,2
20.10.2017 04:00:00 9,9 9,5 0,2
20.10.2017 03:00:00 10,3 10,0 0,2
20.10.2017 02:00:00 10,5 10,1 0,6
20.10.2017 01:00:00 10,6 10,2 1,0
20.10.2017 00:00:00 10,7 10,3 1,0
19.10.2017 23:00:00 10,9 10,4 1,2
19.10.2017 22:00:00 11,0 10,3 0,4
19.10.2017 21:00:00 11,6 10,1 0,0
19.10.2017 20:00:00 12,3 9,9 0,0
19.10.2017 19:00:00 11,9 10,0 0,0
19.10.2017 18:00:00 11,8 10,0 0,0
19.10.2017 17:00:00 12,5 10,0 0,0
19.10.2017 16:00:00 12,7 10,0 0,0
19.10.2017 15:00:00 12,5 9,6 0,0
19.10.2017 14:00:00 12,4 9,5 0,0
19.10.2017 13:00:00 - - -
19.10.2017 12:00:00 - - -
19.10.2017 11:00:00 - - -
19.10.2017 10:00:00 - - -
19.10.2017 09:00:00 - - -
19.10.2017 08:00:00 - - -
19.10.2017 07:00:00 - - -
19.10.2017 06:00:00 - - -
19.10.2017 05:00:00 - - -
19.10.2017 04:00:00 - - -
19.10.2017 03:00:00 - - -
19.10.2017 02:00:00 - - -
19.10.2017 01:00:00 - - -
19.10.2017 00:00:00 - - -
18.10.2017 23:00:00 - - -
18.10.2017 22:00:00 - - -
18.10.2017 21:00:00 - - -
18.10.2017 20:00:00 - - -
18.10.2017 19:00:00 - - -
18.10.2017 18:00:00 - - -
18.10.2017 17:00:00 - - -
18.10.2017 16:00:00 - - -
18.10.2017 15:00:00 - - -
18.10.2017 14:00:00 - - -
18.10.2017 13:00:00 - - -
18.10.2017 12:00:00 - - -
18.10.2017 11:00:00 - - -
18.10.2017 10:00:00 - - -
18.10.2017 09:00:00 - - -
18.10.2017 08:00:00 - - -
18.10.2017 07:00:00 - - -
18.10.2017 06:00:00 - - -
18.10.2017 05:00:00 - - -
18.10.2017 04:00:00 - - -
18.10.2017 03:00:00 - - -
18.10.2017 02:00:00 - - -
18.10.2017 01:00:00 - - -
18.10.2017 00:00:00 - - -
17.10.2017 23:00:00 - - -
17.10.2017 22:00:00 - - -
17.10.2017 21:00:00 - - -
17.10.2017 20:00:00 - - -
17.10.2017 19:00:00 - - -
17.10.2017 18:00:00 - - -
17.10.2017 17:00:00 - - -
17.10.2017 16:00:00 - - -
17.10.2017 15:00:00 - - -
17.10.2017 14:00:00 - - -
17.10.2017 13:00:00 9,9 7,7 0,0
17.10.2017 12:00:00 10,1 7,9 0,0
17.10.2017 11:00:00 10,2 8,7 0,0
17.10.2017 10:00:00 10,5 9,5 0,2
17.10.2017 09:00:00 10,8 10,3 0,2
17.10.2017 08:00:00 11,1 10,9 0,4
17.10.2017 07:00:00 10,8 10,6 1,4
17.10.2017 06:00:00 10,4 10,1 0,2
17.10.2017 05:00:00 9,9 9,6 0,2
17.10.2017 04:00:00 10,6 9,9 0,6
17.10.2017 03:00:00 10,6 10,0 1,0
17.10.2017 02:00:00 10,7 10,0 1,0
17.10.2017 01:00:00 10,7 9,9 1,0
17.10.2017 00:00:00 11,2 10,4 0,6
16.10.2017 23:00:00 12,0 10,2 0,0
16.10.2017 22:00:00 11,7 10,8 0,2
16.10.2017 21:00:00 10,9 10,3 0,0
16.10.2017 20:00:00 10,0 9,1 0,0
16.10.2017 19:00:00 9,3 8,3 0,0
16.10.2017 18:00:00 8,8 8,0 0,0
16.10.2017 17:00:00 8,4 7,9 0,0
16.10.2017 16:00:00 8,3 7,3 0,0
16.10.2017 15:00:00 8,0 6,3 0,2
16.10.2017 14:00:00 7,5 6,2 1,0
16.10.2017 13:00:00 7,4 6,5 0,4
16.10.2017 12:00:00 7,2 6,5 2,0
16.10.2017 11:00:00 7,1 6,6 1,0
16.10.2017 10:00:00 7,1 6,4 1,6
16.10.2017 09:00:00 7,7 6,2 0,0
16.10.2017 08:00:00 7,3 6,4 0,0
16.10.2017 07:00:00 6,7 6,1 0,0
16.10.2017 06:00:00 7,3 6,7 0,0
16.10.2017 05:00:00 7,5 6,9 0,0
16.10.2017 04:00:00 6,8 6,7 0,0
16.10.2017 03:00:00 7,3 7,0 0,0
16.10.2017 02:00:00 7,8 7,2 0,0
16.10.2017 01:00:00 8,1 7,5 0,0
16.10.2017 00:00:00 7,4 6,5 0,0
15.10.2017 23:00:00 8,0 6,9 0,0
15.10.2017 22:00:00 8,0 7,0 0,0
15.10.2017 21:00:00 8,1 7,6 0,0
15.10.2017 20:00:00 8,4 7,1 0,4
15.10.2017 19:00:00 8,7 7,6 0,0
15.10.2017 18:00:00 8,5 8,1 1,0
15.10.2017 17:00:00 8,8 8,3 1,0
15.10.2017 16:00:00 9,3 8,8 0,8
15.10.2017 15:00:00 9,6 9,4 1,4
15.10.2017 14:00:00 12,1 11,0 1,0
15.10.2017 13:00:00 17,2 11,7 0,0
15.10.2017 12:00:00 16,9 12,2 0,0
15.10.2017 11:00:00 16,2 13,0 0,2
15.10.2017 10:00:00 15,1 13,1 0,2
15.10.2017 09:00:00 15,3 12,7 0,2
15.10.2017 08:00:00 15,0 12,7 0,0
15.10.2017 07:00:00 14,4 13,1 2,0
15.10.2017 06:00:00 11,5 11,3 4,0
15.10.2017 05:00:00 10,7 10,3 1,6
15.10.2017 04:00:00 9,8 9,4 1,8
15.10.2017 03:00:00 9,1 8,7 1,4
15.10.2017 02:00:00 8,5 7,9 0,4
15.10.2017 01:00:00 8,2 7,3 1,0
15.10.2017 00:00:00 8,1 7,7 1,4
14.10.2017 23:00:00 7,9 7,4 1,2
14.10.2017 22:00:00 8,2 7,2 0,4

tt = temperature
td = dewpoint
rr = precipitation

Next stations